Location: Newark
(7.0858°N, 171.3717°E)
Time: 03:46:05
(UTC+00:00)

Vanguard 2 - Pass Details

Date: 27 November 2020
Orbit: 553 x 2937 km, 32.9° (Epoch: 26 January)

Event Time Altitude Azimuth Distance (km) Brightness Sun altitude
Rises 04:05:02 0° 332° (NNW) 2,956 10.5 28.5°
Reaches altitude 10° 04:07:53 10° 354° (N) 2,255 9.8 27.8°
Maximum altitude 04:11:19 17° 36° (NE) 2,091 9.4 27.1°
Drops below altitude 10° 04:15:44 10° 75° (ENE) 3,013 10.1 26.1°
Sets 04:20:26 0° 93° (E) 4,484 11.0 25.1°
